Location: Bothwell
(42.3833°S, 147.0000°E)
Time: 20:28:52
(UTC+11:00)

BEESAT - Pass Details

Date: 02 October 2022
Orbit: 699 x 706 km, 98.5° (Epoch: 25 November)

Event Time Altitude Azimuth Distance (km) Brightness Sun altitude
Exits shadow 21:33:55 17° 339° (NNW) 1,737 ? -24.3°
Maximum altitude 21:37:07 38° 278° (W) 1,079 ? -24.9°
Drops below altitude 10° 21:41:39 10° 209° (SSW) 2,211 ? -25.6°
Sets 21:44:05 0° 201° (SSW) 3,139 ? -25.9°
